GPS BIIF-3 (PRN 24)

Last updated on Sat Oct 25 2025 00:03:18 GMT+0000 (Coordinated Universal Time)

1 38833U 12053A 25296.99398823 .00000048 00000+0 00000+0 0 9991 2 38833 53.5483 153.2767 0173891 63.1333 298.7311 2.00564629 94709
UTC large
Height (km)
Speed (km/s)
/
Latitude / Longitude
Inclination (degrees)
Orbital Period (minutes)
Azimuth
Elevation
Range (km)
Doppler Factor

Next 0 passes for location: London (51.5072 / 0.1276)

Sorry there are no passes over London.